When you browse on this site, cookies collect data to enhance your experience and personalize the content and advertising you see.
Visit our Privacy Policy to learn more. By continuing to use the site, you agree to this use of cookies and data.
  • In Portugal
  • List of Countries
  • For 7 days
  • Water Temperature
  • Satellite Maps
  • Weather Map
  • Weather Widgets
  • user-avatar
    Login

    Hourly Weather Amsar

    Today, 27 June, Thursday

    Time Temperature Precipitation Wind Pressure Humidity
    00:00 +16°C° 0.1 mm 1 mps 638 mmHg 82%
    01:00 +16°C° 0 mm 1 mps 637 mmHg 81%
    02:00 +16°C° 0 mm 1 mps 637 mmHg 80%
    03:00 +16°C° 0 mm 1 mps 637 mmHg 79%
    04:00 +18°C° 0 mm 1 mps 638 mmHg 76%
    05:00 +19°C° 0 mm 1 mps 638 mmHg 73%
    06:00 +20°C° 0 mm 1 mps 639 mmHg 70%
    07:00 +21°C° 0 mm 1 mps 639 mmHg 66%
    08:00 +21°C° 0 mm 2 mps 639 mmHg 63%
    09:00 +23°C° 0 mm 2 mps 639 mmHg 59%
    10:00 +23°C° 0.5 mm 2 mps 639 mmHg 62%
    11:00 +23°C° 0.5 mm 2 mps 639 mmHg 66%
    12:00 +23°C° 0.5 mm 2 mps 638 mmHg 70%
    13:00 +23°C° 1.2 mm 2 mps 638 mmHg 71%
    14:00 +23°C° 1.2 mm 2 mps 638 mmHg 71%
    15:00 +23°C° 1.2 mm 1 mps 637 mmHg 72%
    16:00 +23°C° 0.5 mm 1 mps 637 mmHg 73%
    17:00 +22°C° 0.5 mm 1 mps 637 mmHg 74%
    18:00 +22°C° 0.5 mm 1 mps 636 mmHg 75%
    19:00 +21°C° 0.2 mm 1 mps 636 mmHg 79%
    20:00 +19°C° 0.2 mm 1 mps 635 mmHg 82%
    21:00 +16°C° 0.2 mm 1 mps 635 mmHg 86%
    22:00 +16°C° 0 mm 1 mps 634 mmHg 86%
    23:00 +16°C° 0 mm 1 mps 634 mmHg 87%

    Tomorrow, 28 June, Friday

    Time Temperature Precipitation Wind Pressure Humidity
    00:00 +16°C° 0 mm 1 mps 634 mmHg 88%
    01:00 +15°C° 0 mm 1 mps 634 mmHg 87%
    02:00 +15°C° 0 mm 1 mps 633 mmHg 86%
    03:00 +15°C° 0 mm 1 mps 633 mmHg 85%
    04:00 +16°C° 0 mm 1 mps 633 mmHg 83%
    05:00 +18°C° 0 mm 1 mps 634 mmHg 80%
    06:00 +19°C° 0 mm 1 mps 634 mmHg 78%
    07:00 +21°C° 0 mm 1 mps 634 mmHg 72%
    08:00 +22°C° 0 mm 1 mps 634 mmHg 67%
    09:00 +24°C° 0 mm 2 mps 635 mmHg 61%
    10:00 +24°C° 0.7 mm 2 mps 634 mmHg 61%
    11:00 +25°C° 0.7 mm 2 mps 634 mmHg 60%
    12:00 +25°C° 0.7 mm 2 mps 634 mmHg 60%
    13:00 +25°C° 1.2 mm 2 mps 634 mmHg 60%
    14:00 +25°C° 1.2 mm 2 mps 633 mmHg 60%
    15:00 +25°C° 1.2 mm 2 mps 633 mmHg 60%
    16:00 +25°C° 0.5 mm 2 mps 632 mmHg 63%
    17:00 +24°C° 0.5 mm 2 mps 632 mmHg 67%
    18:00 +23°C° 0.5 mm 1 mps 631 mmHg 70%
    19:00 +22°C° 0 mm 1 mps 631 mmHg 73%
    20:00 +19°C° 0 mm 2 mps 631 mmHg 75%
    21:00 +17°C° 0 mm 2 mps 631 mmHg 78%
    22:00 +17°C° 0 mm 2 mps 630 mmHg 79%
    23:00 +17°C° 0 mm 2 mps 630 mmHg 79%

    Day after tomorrow, 29 June, Saturday

    Time Temperature Precipitation Wind Pressure Humidity
    00:00 +17°C° 0 mm 2 mps 630 mmHg 79%
    01:00 +17°C° 0.1 mm 2 mps 630 mmHg 80%
    02:00 +18°C° 0.1 mm 2 mps 630 mmHg 80%
    03:00 +19°C° 0.1 mm 1 mps 631 mmHg 80%
    04:00 +19°C° 0.4 mm 1 mps 631 mmHg 81%
    05:00 +19°C° 0.4 mm 1 mps 631 mmHg 81%
    06:00 +19°C° 0.4 mm 1 mps 631 mmHg 81%
    07:00 +21°C° 0.5 mm 1 mps 632 mmHg 77%
    08:00 +21°C° 0.5 mm 2 mps 632 mmHg 73%
    09:00 +24°C° 0.5 mm 2 mps 632 mmHg 69%
    10:00 +24°C° 1.8 mm 2 mps 632 mmHg 70%
    11:00 +24°C° 1.8 mm 3 mps 632 mmHg 72%
    12:00 +24°C° 1.8 mm 3 mps 632 mmHg 74%
    13:00 +24°C° 2.2 mm 3 mps 632 mmHg 75%
    14:00 +23°C° 2.2 mm 2 mps 632 mmHg 77%
    15:00 +23°C° 2.2 mm 2 mps 631 mmHg 79%
    16:00 +23°C° 1.6 mm 2 mps 631 mmHg 79%
    17:00 +21°C° 1.6 mm 2 mps 631 mmHg 79%
    18:00 +22°C° 1.6 mm 1 mps 631 mmHg 79%
    19:00 +21°C° 1.3 mm 1 mps 631 mmHg 84%
    20:00 +20°C° 1.3 mm 1 mps 631 mmHg 90%
    21:00 +19°C° 1.3 mm 1 mps 632 mmHg 95%
    22:00 +19°C° 3 mm 1 mps 632 mmHg 95%
    23:00 +18°C° 3 mm 1 mps 632 mmHg 95%

    30 June, Sunday

    Time Temperature Precipitation Wind Pressure Humidity
    00:00 +18°C° 3 mm 1 mps 632 mmHg 95%
    01:00 +18°C° 0.4 mm 1 mps 632 mmHg 95%
    02:00 +16°C° 0.4 mm 1 mps 632 mmHg 95%
    03:00 +16°C° 0.4 mm 1 mps 632 mmHg 95%
    04:00 +16°C° 0.4 mm 1 mps 632 mmHg 94%
    05:00 +16°C° 0.4 mm 1 mps 632 mmHg 94%
    06:00 +16°C° 0.4 mm 2 mps 632 mmHg 93%
    07:00 +16°C° 0.7 mm 2 mps 633 mmHg 92%
    08:00 +16°C° 0.7 mm 2 mps 633 mmHg 91%
    09:00 +16°C° 0.7 mm 2 mps 633 mmHg 90%
    10:00 +17°C° 0.6 mm 2 mps 633 mmHg 89%
    11:00 +17°C° 0.6 mm 2 mps 633 mmHg 89%
    12:00 +17°C° 0.6 mm 3 mps 633 mmHg 89%
    13:00 +17°C° 0.9 mm 2 mps 633 mmHg 90%
    14:00 +17°C° 0.9 mm 2 mps 633 mmHg 91%
    15:00 +16°C° 0.9 mm 2 mps 632 mmHg 93%
    16:00 +16°C° 1.1 mm 2 mps 632 mmHg 95%
    17:00 +16°C° 1.1 mm 2 mps 632 mmHg 96%
    18:00 +16°C° 1.1 mm 2 mps 632 mmHg 98%
    19:00 +14°C° 2.8 mm 3 mps 633 mmHg 98%
    20:00 +14°C° 2.8 mm 3 mps 633 mmHg 98%
    21:00 +14°C° 2.8 mm 3 mps 633 mmHg 98%
    22:00 +14°C° 2 mm 3 mps 634 mmHg 98%
    23:00 +13°C° 2 mm 3 mps 634 mmHg 98%

    1 July, Monday

    Time Temperature Precipitation Wind Pressure Humidity
    00:00 +13°C° 2 mm 3 mps 634 mmHg 98%
    01:00 +14°C° 2.6 mm 2 mps 634 mmHg 98%
    02:00 +14°C° 2.6 mm 2 mps 634 mmHg 98%
    03:00 +13°C° 2.6 mm 2 mps 633 mmHg 98%
    04:00 +13°C° 1.7 mm 2 mps 634 mmHg 98%
    05:00 +12°C° 1.7 mm 2 mps 634 mmHg 97%
    06:00 +12°C° 1.7 mm 2 mps 634 mmHg 97%
    07:00 +12°C° 2.7 mm 2 mps 634 mmHg 97%
    08:00 +11°C° 2.7 mm 1 mps 633 mmHg 97%
    09:00 +10°C° 2.7 mm 1 mps 633 mmHg 97%
    10:00 +10°C° 3.2 mm 1 mps 633 mmHg 97%
    11:00 +10°C° 3.2 mm 1 mps 633 mmHg 96%
    12:00 +9°C° 3.2 mm 2 mps 633 mmHg 96%
    13:00 +10°C° 0.7 mm 2 mps 634 mmHg 93%
    14:00 +12°C° 0.7 mm 2 mps 634 mmHg 90%
    15:00 +13°C° 0.7 mm 2 mps 634 mmHg 87%
    16:00 +12°C° 0.1 mm 2 mps 634 mmHg 89%
    17:00 +12°C° 0.1 mm 2 mps 634 mmHg 91%
    18:00 +12°C° 0.1 mm 2 mps 634 mmHg 93%
    19:00 +11°C° 0.2 mm 1 mps 634 mmHg 94%
    20:00 +11°C° 0.2 mm 1 mps 635 mmHg 95%
    21:00 +10°C° 0.2 mm 1 mps 635 mmHg 97%
    22:00 +10°C° 0.1 mm 1 mps 635 mmHg 95%
    23:00 +9°C° 0.1 mm 1 mps 635 mmHg 93%

    2 July, Tuesday

    Time Temperature Precipitation Wind Pressure Humidity
    00:00 +9°C° 0.1 mm 1 mps 635 mmHg 91%
    01:00 +8°C° 0 mm 1 mps 635 mmHg 90%
    02:00 +8°C° 0 mm 1 mps 635 mmHg 90%
    03:00 +7°C° 0 mm 1 mps 635 mmHg 89%
    04:00 +8°C° 0 mm 1 mps 635 mmHg 86%
    05:00 +9°C° 0 mm 1 mps 635 mmHg 84%
    06:00 +10°C° 0 mm 1 mps 636 mmHg 82%
    07:00 +11°C° 0 mm 1 mps 636 mmHg 78%
    08:00 +12°C° 0 mm 2 mps 637 mmHg 74%
    09:00 +14°C° 0 mm 2 mps 637 mmHg 70%
    10:00 +15°C° 0 mm 2 mps 637 mmHg 67%
    11:00 +16°C° 0 mm 2 mps 638 mmHg 64%
    12:00 +17°C° 0 mm 2 mps 638 mmHg 61%
    13:00 +18°C° 0 mm 2 mps 638 mmHg 60%
    14:00 +18°C° 0 mm 2 mps 638 mmHg 59%
    15:00 +19°C° 0 mm 2 mps 638 mmHg 58%
    16:00 +19°C° 0 mm 1 mps 638 mmHg 64%
    17:00 +18°C° 0 mm 1 mps 637 mmHg 70%
    18:00 +18°C° 0 mm 1 mps 637 mmHg 76%
    19:00 +15°C° 0 mm 1 mps 637 mmHg 76%
    20:00 +13°C° 0 mm 1 mps 636 mmHg 76%
    21:00 +12°C° 0 mm 1 mps 636 mmHg 76%
    22:00 +11°C° 0 mm 1 mps 636 mmHg 75%
    23:00 +10°C° 0 mm 2 mps 635 mmHg 74%
    Show more